Location: Cruquius
(52.3348°N, 4.6319°E)
Time: 09:06:51
(UTC+00:00)

NOSS 2-1 (D) - Pass Details

Date: 12 May 2021
Orbit: 431 x 1770 km, 63.3° (Epoch: 26 May)

Event Time Altitude Azimuth Distance (km) Brightness Sun altitude
Rises 23:07:37 0° 314° (NW) 2,758 7.7 -19.0°
Reaches altitude 10° 23:09:34 10° 317° (NW) 1,980 6.9 -19.0°
Maximum altitude 23:13:59 66° 41° (NE) 825 4.3 -19.1°
Enters shadow 23:19:12 14° 122° (ESE) 2,375 6.2 -19.2°
